Location: Newark
(9.4667°S, 159.8167°E)
Time: 03:22:11
(UTC+00:00)

Courier 1B Rocket - Pass Details

Date: 26 November 2019
Orbit: 920 x 1202 km, 28.2° (Epoch: 14 December)

Event Time Altitude Azimuth Distance (km) Brightness Sun altitude
Rises 11:52:33 0° 280° (W) 4,090 - -54.4°
Reaches altitude 10° 11:55:35 10° 273° (W) 3,131 - -54.8°
Maximum altitude 12:02:56 43° 204° (SSW) 1,608 - -55.7°
Drops below altitude 10° 12:10:06 10° 134° (SE) 3,049 - -56.4°
Sets 12:13:02 0° 127° (SE) 3,974 - -56.7°
